Location: Unspecified
(64.9000°N, 0.0000°E)
Time: 13:44:38
(UTC+00:00)

Transit 2A Rocket - Pass Details

Date: 20 June 2019
Orbit: 588 x 915 km, 66.7° (Epoch: 17 July)

Event Time Altitude Azimuth Distance (km) Brightness Sun altitude
Rises 20:31:07 0° 306° (NW) 3,365 10.7 7.1°
Reaches altitude 10° 20:36:10 10° 266° (W) 2,323 8.2 6.7°
Maximum altitude 20:36:54 10° 259° (WSW) 2,287 8.0 6.7°
Drops below altitude 10° 20:37:38 10° 250° (WSW) 2,290 7.9 6.6°
Sets 20:42:21 0° 210° (SSW) 3,100 8.0 6.3°
